TimeAST,TemperatureF,Dew PointF,Humidity,Sea Level PressureIn,VisibilityMPH,Wind Direction,Wind SpeedMPH,Gust SpeedMPH,PrecipitationIn,Events,Conditions,WindDirDegrees,DateUTC
12:00 AM,77.0,75.2,94,29.83,6.2,Calm,Calm,-,N/A,,Mostly Cloudy,0,2012-11-16 04:00:00
1:00 AM,77.0,75.2,94,29.83,6.2,Calm,Calm,-,N/A,,Scattered Clouds,0,2012-11-16 05:00:00
2:00 AM,77,75,92,29.82,12,Calm,Calm,,,,Partly Cloudy,,2012-11-16 06:00:00
2:00 AM,78.8,75.2,89,29.83,6.2,Calm,Calm,-,N/A,Rain,Light Rain Showers,0,2012-11-16 06:00:00
3:00 AM,77.0,75.2,94,29.80,6.2,Calm,Calm,-,N/A,,Partly Cloudy,0,2012-11-16 07:00:00
4:00 AM,77.0,75.2,94,29.80,6.2,Calm,Calm,-,N/A,,Partly Cloudy,0,2012-11-16 08:00:00
5:00 AM,76,74,94,29.83,12,Calm,Calm,,,,Mist,,2012-11-16 09:00:00
5:00 AM,75.2,75.2,100,29.83,6.2,Calm,Calm,-,N/A,,Partly Cloudy,0,2012-11-16 09:00:00
6:00 AM,75.2,75.2,100,29.83,6.2,Calm,Calm,-,N/A,,Mostly Cloudy,0,2012-11-16 10:00:00
7:00 AM,77.0,75.2,94,29.86,6.2,Calm,Calm,-,N/A,Rain,Light Rain Showers,0,2012-11-16 11:00:00
8:00 AM,82,77,80,29.89,9,Calm,Calm,,,,Scattered Clouds,,2012-11-16 12:00:00
8:00 AM,82.4,77.0,84,29.89,6.2,Calm,Calm,-,N/A,,Mostly Cloudy,0,2012-11-16 12:00:00
9:00 AM,86.0,77.0,74,29.89,5.0,SE,5.8,-,N/A,,Partly Cloudy,130,2012-11-16 13:00:00
9:40 AM,82.4,77.0,84,29.89,0.7,SE,11.5,-,N/A,Rain,Light Rain Showers,130,2012-11-16 13:40:00
10:00 AM,78.8,77.0,94,29.89,1.2,SE,11.5,-,N/A,Rain,Light Rain Showers,140,2012-11-16 14:00:00
11:00 AM,76,75,95,29.91,1,South,3.5,,,Rain,Light Rain Showers,170,2012-11-16 15:00:00
11:00 AM,77.0,75.2,94,29.89,1.2,South,3.5,-,N/A,Rain,Light Rain Showers,170,2012-11-16 15:00:00
11:31 AM,78.8,75.2,89,29.89,3.7,East,6.9,-,N/A,Rain-Thunderstorm,Light Thunderstorms and Rain,80,2012-11-16 15:31:00
11:48 AM,78.8,75.2,89,29.86,6.2,ENE,5.8,-,N/A,,Mostly Cloudy,60,2012-11-16 15:48:00
12:00 PM,78.8,75.2,89,29.86,6.2,ENE,5.8,-,N/A,,Mostly Cloudy,60,2012-11-16 16:00:00
1:00 PM,80.6,75.2,84,29.83,6.2,ESE,3.5,-,N/A,,Mostly Cloudy,110,2012-11-16 17:00:00
2:00 PM,86,75,62,29.82,16,ESE,13.8,,,,Partly Cloudy,110,2012-11-16 18:00:00
2:00 PM,86.0,75.2,70,29.80,6.2,ESE,13.8,-,N/A,,Mostly Cloudy,110,2012-11-16 18:00:00
3:00 PM,87.8,75.2,66,29.80,6.2,ESE,13.8,-,N/A,,Mostly Cloudy,110,2012-11-16 19:00:00
4:00 PM,86.0,75.2,70,29.80,6.2,SE,9.2,-,N/A,,Mostly Cloudy,130,2012-11-16 20:00:00
5:00 PM,86,76,65,29.82,12,SE,5.8,,,,Scattered Clouds,130,2012-11-16 21:00:00
5:00 PM,86.0,75.2,70,29.80,6.2,SE,5.8,-,N/A,,Mostly Cloudy,130,2012-11-16 21:00:00
6:00 PM,82.4,75.2,79,29.80,6.2,ESE,5.8,-,N/A,,Mostly Cloudy,120,2012-11-16 22:00:00
7:00 PM,80.6,75.2,84,29.80,6.2,Calm,Calm,-,N/A,,Mostly Cloudy,0,2012-11-16 23:00:00
8:00 PM,79,75,85,29.84,12,Calm,Calm,,,,Scattered Clouds,,2012-11-17 00:00:00
8:00 PM,78.8,75.2,89,29.83,6.2,Calm,Calm,-,N/A,,Mostly Cloudy,0,2012-11-17 00:00:00
9:00 PM,78.8,75.2,89,29.86,6.2,Calm,Calm,-,N/A,,Scattered Clouds,0,2012-11-17 01:00:00
10:00 PM,78.8,75.2,89,29.86,6.2,Calm,Calm,-,N/A,,Scattered Clouds,0,2012-11-17 02:00:00
11:00 PM,78,74,85,29.87,12,Calm,Calm,,,,Scattered Clouds,,2012-11-17 03:00:00
11:00 PM,78.8,75.2,89,29.86,6.2,Calm,Calm,-,N/A,,Partly Cloudy,0,2012-11-17 03:00:00